Probability
0 0 0 0 0 0 0 0 0 0 0 0 0 0 0 0 0 0 0 0 0 0 0 0 0 0 0 0 0 0 0 0 0 0 0 0 0 0
0 0 0 0 0 0 0 0 0 0 0 0 0 0 0 0 0 0 0 0 0 0 0 0 0 0 0 0 0 0 0 0 0 0 0 0 0 0
0 0 0 0 0 0 0 0 0 0 0 0 0 0 0 0 0 0 0 0 0 0 0 0 0 0 0 0 0 0 0 0 0 0 0 0 0 0
0 0 0 0 0 0 0 0 0 0 0 0 0 0 0 0 0 0 0 0 0 0 0 0 0 0 0 0 0 0 0 0 0 0 0 0 0 0
0 0 0 0 0 0 0 0 0 0 0 0 0 0 0 0 0 0 0 0 0 0 0 0 0 0 0 0 0 0 0 0 0 0 0 0 0 0
0 0 0 0 0 0 0 0 0 0 0 0 0 0 0 0 0 0 0 0 0 0 0 0 0 0 0 0 0 0 0 0 0 0 0 0 0 0
0 0 0 0 0 0 0 0 0 0 0 0 0 0 0 0 0 0 0 0 0 0 0 0 0 0 0 0 0 0 0 0 0 0 0 0 0 0
0 0 0 0 0 0 0 0 0 0 0 0 0 0 0 0 0 0 0 0 0 0 0 0 0 0 0 0 0 0 0 0 0 0 0 0 0 0
0 0 0 0 0 0 0 0 0 0 0 0 0 0 0 0 0 0 0 0 0 0 0 0 0 0 0 0 0 0 0 0 0 0 0 0 0 0
0 0 0 0 0 0 0 0 0 0 0 0 0 0 0 0 0 0 0 0 0 0 0 0 0 0 0 0 0 0 0 0 0 0 0 0 0 0
0 0 0 0 0 0 0 0 0 0 0 0 0 0 0 0 0 0 0 0 0 0 0 0 0 0 0 0 0 0 0 0 0 0 0 0 0 0
0 0 0 0 0 0 0 0 0 0 0 0 0 0 0 0 0 0 0 0 0 0 0 0 0 0 0 0 0 0 0 0 0 0 0 0 0 0
0 0 0 0 0 0 0 0 0 0 0 0 0 0 0 0 0 0 0 0 0 0 0 0 0 0 0 0 0 0 0 0 0 0 0 0 0 0
0 0 0 0 0 0 0 0 0 0 0 0 0 0 0 0 0 0 0 0 0 0 0 0 0 0 0 0 0 0 0 0 0 0 0 0 0 0
0 0 0 0 0 0 0 0 0 0 0 0 0 0 0 0 0 0 0 0 0 0 0 0 0 0 0 0 0 0 0 0 0 0 0 0 0 0
0 0 0 0 0 0 0 0 0 0 0 0 0 0 0 0 0 0 0 0 0 0 0 0 0 0 0 0 0 0 0 0 0 0 0 0 0 0
0 0 0 0 0 0 0 0 0 0 0 0 0 0 0 0 0 0 0 0 0 0 0 0 0 0 0 0 0 0 0 0 0 0 0 0 0 0
0 0 0 0 0 0 0 0 0 0 0 0 0 0 0 0 0 0 0 0 0 0 0 0 0 0 0 0 0 0 0 0 0 0 0 0 0 0
0 0 0 0 0 0 0 0 0 0 0 0 0 0 0 0 0 0 0 0 0 0 0 0 0 0 0 0 0 0 0 0 0 0 0 0 0 0
0 0 0 0 0 0 0 0 0 0 0 0 0 0 0 0 0 0 0 0 0 0 0 0 0 0 0 0 0 0 0 0 0 0 0 0 0 0
0 0 0 0 0 0 0 0 0 0 0 0 0 0 0 0 0 0 0 0 0 0 0 0 0 0 0 0 0 0 0 0 0 0 0 0 0 0
0 0 0 0 0 0 0 0 0 0 0 0 0 0 0 0 0 0 0 0 0 0 0 0 0 0 0 0 0 0 0 0 0 0 0 0 0 0
0 0 0 0 0 0 0 0 0 0 0 0 0 0 0 0 0 0 0 0 0 0 0 0 0 0 0 0 0 0 0 0 0 0 0 0 0 0
Wind_Speed
9 10 8 6 7 6 5 6 9 8 10 9 6 9 10 9 17 12 10 18 19 17 15 13 12 10 8 7 5 4 4 4 5 6 7 8 8 9
7 9 10 7 6 6 7 6 6 8 9 10 9 7 11 11 18 12 12 21 20 18 16 15 14 12 10 9 7 6 5 5 5 6 7 7 8 9
9 10 11 9 8 7 7 7 6 6 7 5 5 6 11 11 10 10 10 11 11 19 17 16 15 14 12 11 10 8 7 6 6 6 6 7 8 9
10 11 12 9 12 9 8 9 8 7 6 6 5 5 8 14 13 12 10 9 8 17 19 18 17 16 15 13 12 11 9 8 7 6 6 7 7 8
11 12 12 11 13 10 10 10 8 7 6 6 6 4 3 8 11 8 8 6 7 11 17 18 19 18 17 16 15 13 11 9 8 7 7 7 7 8
11 12 12 13 14 12 11 12 9 9 8 6 5 5 4 7 11 9 8 8 8 7 12 13 16 19 19 18 16 14 12 11 10 9 8 7 7 8
12 12 13 14 17 15 12 11 11 11 10 9 7 5 7 10 14 11 11 8 7 7 8 8 8 8 11 15 16 16 15 14 12 10 9 8 7 8
13 13 13 14 15 22 24 21 18 17 16 15 13 11 15 11 11 11 11 9 8 9 10 9 8 9 8 7 14 18 17 15 13 11 10 9 8 8
14 13 12 12 14 14 19 25 25 29 28 19 19 20 13 14 16 16 16 12 10 11 12 10 9 10 8 10 19 18 17 16 14 12 10 9 8 8
15 15 16 15 14 15 13 16 18 19 23 21 20 17 10 13 19 18 17 9 3 5 9 8 9 8 7 7 17 19 18 16 15 13 10 9 8 8
16 16 16 17 22 26 19 18 19 19 25 26 23 18 16 19 20 12 12 11 6 7 7 7 7 5 5 6 10 18 17 16 15 12 10 9 8 8
15 15 17 20 26 28 20 18 21 19 13 14 19 21 16 17 28 21 17 15 9 9 11 10 7 7 6 4 5 6 8 13 13 11 9 8 8 4
14 14 14 25 28 29 27 20 24 18 11 14 14 12 11 11 15 17 15 13 14 7 12 13 8 7 7 6 5 6 6 5 5 5 6 7 8 6
16 14 15 26 28 29 23 24 30 25 12 12 14 15 15 14 10 11 10 6 5 6 13 16 8 11 10 7 6 6 6 5 5 4 4 6 7 9
16 24 26 30 29 23 26 29 22 15 13 14 15 15 12 10 8 8 8 7 6 6 11 9 7 11 8 8 8 6 5 5 5 4 4 4 4 4
17 16 24 29 26 22 17 19 15 13 14 14 12 10 8 10 11 11 10 10 8 6 7 7 6 9 6 6 7 6 6 5 4 4 4 3 4 5
18 13 11 10 11 11 12 12 12 13 14 13 11 11 11 12 11 10 10 10 9 10 9 6 5 4 5 6 6 6 6 5 5 4 3 4 5 6
26 16 14 12 11 10 10 10 11 13 12 12 12 12 12 12 11 10 10 10 10 10 10 10 9 6 4 0 5 6 6 5 4 4 4 4 6 6
21 16 14 13 11 9 9 10 10 10 10 10 11 11 12 12 12 12 12 11 10 10 10 11 10 9 8 6 7 11 7 5 5 4 4 4 6 7
14 14 13 12 10 9 8 8 8 8 9 9 10 11 12 13 14 14 13 13 11 10 10 10 10 9 7 8 6 5 9 6 4 3 3 4 7 12
11 11 11 11 9 8 8 8 8 8 9 9 10 11 12 12 12 12 12 14 11 10 11 10 8 9 7 7 5 3 1 5 6 4 4 5 7 8
9 10 9 9 7 7 7 7 8 8 10 9 9 10 10 11 12 13 12 12 10 9 9 8 9 8 5 5 5 5 4 4 6 10 11 11 6 6
7 5 4 4 5 5 6 7 8 7 8 8 9 9 10 10 10 10 11 10 10 11 11 10 8 6 5 5 5 4 4 4 4 5 6 12 18 22
Wind_Direction
235 240 243 238 233 228 208 177 169 187 213 210 197 194 191 186 194 189 184 196 197 199 202 205 208 211 216 223 234 248 268 289 305 314 320 323 325 328
232 237 242 239 239 233 225 218 198 195 208 199 198 188 186 191 196 187 190 194 198 200 203 207 210 213 218 223 230 239 252 269 289 302 311 316 320 322
238 239 241 236 238 233 228 225 219 199 211 200 185 176 176 184 188 185 187 188 193 201 205 210 212 214 218 222 226 232 241 254 271 287 299 306 310 314
243 242 244 237 238 231 227 227 224 213 200 190 186 166 185 189 184 185 188 188 186 201 206 210 212 215 218 220 222 227 233 242 253 266 278 288 298 306
245 244 245 238 242 233 228 228 224 219 213 191 187 176 173 177 175 180 186 189 191 200 205 210 213 216 218 219 219 221 226 232 239 247 257 272 286 296
252 248 244 240 243 235 232 229 219 216 214 205 186 181 170 171 176 179 190 198 200 195 207 211 216 220 221 220 219 219 220 223 227 233 242 256 271 282
263 256 251 246 244 238 235 227 216 219 214 213 203 180 183 176 188 184 195 190 203 192 195 205 207 211 213 220 219 217 216 216 218 223 231 243 257 271
268 263 256 251 248 247 244 235 221 220 219 219 217 209 205 194 182 182 179 172 205 194 190 205 197 207 209 207 216 214 210 209 211 217 226 236 249 265
266 264 260 252 246 247 249 247 239 232 225 219 224 225 206 192 187 188 191 190 198 177 178 195 190 206 199 208 212 211 207 205 208 214 223 234 248 267
261 259 259 257 247 243 241 242 242 240 235 229 229 228 212 194 195 196 197 189 80 160 169 181 181 193 187 195 212 209 208 207 207 211 220 235 253 272
262 257 254 256 255 250 245 243 243 243 244 237 234 226 212 201 190 184 181 179 183 186 182 165 162 159 170 188 206 210 209 208 207 212 223 238 258 277
261 256 249 249 254 252 245 241 242 240 229 235 236 234 220 207 198 194 189 191 185 184 186 170 158 149 165 185 187 199 207 207 207 216 228 244 263 262
259 255 251 254 255 254 248 242 243 238 222 224 226 224 216 209 205 201 198 195 191 191 176 171 160 160 157 155 176 189 187 185 193 212 229 251 266 266
254 252 250 256 258 258 255 246 245 241 229 220 221 221 219 215 207 196 190 195 191 180 175 173 167 168 155 151 165 175 186 188 192 201 200 243 263 271
264 257 255 256 258 259 257 253 245 234 224 219 219 220 216 206 190 181 166 139 110 141 167 177 171 163 155 150 151 155 161 183 194 204 207 216 227 245
286 276 269 265 262 255 249 249 237 226 219 219 218 211 195 191 190 186 181 168 150 143 155 159 163 154 144 141 143 151 158 162 175 188 197 217 237 245
282 279 266 254 249 246 244 235 226 218 216 214 209 201 195 192 190 183 178 173 173 167 161 156 142 122 117 137 148 160 168 183 190 196 206 234 246 250
275 268 264 254 248 245 241 232 221 216 212 209 204 197 191 187 179 174 175 178 179 175 172 165 154 136 112 40 180 163 178 192 195 205 208 230 259 260
265 261 259 256 245 238 236 232 222 213 207 204 198 190 182 176 172 172 175 180 182 178 174 170 169 160 158 171 197 199 182 181 185 198 207 222 259 273
255 254 253 251 241 230 226 223 213 202 200 196 188 180 175 172 172 175 178 181 179 172 168 170 177 175 167 159 146 172 189 170 170 199 232 252 262 274
252 248 245 240 229 219 212 206 201 195 188 183 179 173 171 170 172 174 176 178 173 170 169 169 162 136 105 102 104 115 164 200 202 211 234 262 276 273
258 251 241 223 207 200 194 189 185 180 176 173 168 166 165 167 168 168 170 171 170 163 154 143 139 134 128 139 144 145 159 190 235 258 265 265 266 270
290 265 239 195 180 174 171 166 162 159 158 155 155 156 157 158 159 160 160 159 154 149 142 139 139 138 142 147 157 167 190 212 236 250 255 264 270 275